Location: Almena City Lake
(39.8850°N, 99.6804°W)
Time: 09:41:42
(UTC+00:00)

STARLINK-1041 - Pass Details

Date: 18 February 2020
Orbit: 549 x 551 km, 53.0° (Epoch: 04 April)

Event Time Altitude Azimuth Distance (km) Brightness Sun altitude
Exits shadow 11:34:03 42° 182° (S) 792 4.3 -22.5°
Drops below altitude 10° 11:37:08 10° 149° (SSE) 1,817 6.6 -21.9°
Sets 11:39:24 0° 144° (SE) 2,707 7.6 -21.5°
